Location: ????????
(54.9045°N, 39.1041°E)
Time: 04:45:13
(UTC+00:00)

ACS3 Solar Sail - Visible Passes

Search period start: 21 June 2024 00:00
Search period end: 01 July 2024 00:00
Orbit: 992 x 1024 km, 97.4° (Epoch: 20 June)

Date Brightness Start Highest point End Pass type
(mag) Time Alt. Az. Time Alt. Az. Time Alt. Az.
21 Jun 5.2 18:57:24 10° S 19:03:37 69° W 19:09:51 10° NNW visible
21 Jun 7.0 20:45:21 10° WSW 20:48:57 16° W 20:52:34 10° NW visible
22 Jun 5.8 19:32:23 10° SSW 19:38:15 42° W 19:44:09 10° NNW visible
23 Jun 6.5 20:08:01 10° SW 20:13:05 26° W 20:18:11 10° NNW visible
24 Jun 5.2 18:56:34 10° S 19:02:46 68° W 19:09:00 10° NNW visible
24 Jun 7.0 20:44:39 10° WSW 20:48:08 15° W 20:51:38 10° NW visible
25 Jun 5.9 19:31:35 10° SSW 19:37:25 41° W 19:43:17 10° NNW visible
26 Jun 6.6 20:07:15 10° SW 20:12:16 25° W 20:17:18 10° NNW visible
27 Jun 5.2 18:55:44 10° S 19:01:54 66° W 19:08:08 10° NNW visible
27 Jun 7.1 20:43:57 10° WSW 20:47:19 15° WNW 20:50:41 10° NW visible
28 Jun 5.9 19:30:47 10° SSW 19:36:34 40° W 19:42:25 10° NNW visible
29 Jun 6.6 20:06:28 10° SW 20:11:26 24° W 20:16:24 10° NNW visible
30 Jun 5.3 18:54:53 10° S 19:01:04 64° W 19:07:17 10° NNW visible
30 Jun 7.1 20:43:16 10° WSW 20:46:29 14° WNW 20:49:44 10° NW visible
